| time (UTC) | temp F | wind direction | speed knots | gust knots | rain 1hr in | rain 24hr in | rain mn in | humidity % | barometer mb |
| 20260905230659 | 81 | 247 | 6.1 | 17.4 | 0.00 | 0.00 | 0.00 | 42 | 1016.3 |
| 20260905230202 | 81 | 240 | 6.1 | 18.2 | 0.00 | 0.00 | 0.00 | 43 | 1016.3 |
| 20260905225208 | 81 | 241 | 7.0 | 19.1 | 0.00 | 0.00 | 0.00 | 43 | 1016.4 |
| 20260905224214 | 81 | 238 | 9.6 | 18.2 | 0.00 | 0.00 | 0.00 | 44 | 1016.4 |
| 20260905223717 | 79 | 245 | 7.8 | 18.2 | 0.00 | 0.00 | 0.00 | 46 | 1016.6 |
| 20260905223220 | 80 | 257 | 8.7 | 18.2 | 0.00 | 0.00 | 0.00 | 44 | 1016.5 |
| 20260905222226 | 80 | 261 | 13.0 | 20.9 | 0.00 | 0.00 | 0.00 | 42 | 1016.5 |
| 20260905221729 | 81 | 264 | 11.3 | 17.4 | 0.00 | 0.00 | 0.00 | 43 | 1016.5 |
| 20260905221232 | 81 | 262 | 9.6 | 16.5 | 0.00 | 0.00 | 0.00 | 43 | 1016.5 |
| 20260905220735 | 82 | 219 | 10.4 | 19.1 | 0.00 | 0.00 | 0.00 | 42 | 1016.6 |
| 20260905215741 | 81 | 244 | 9.6 | 18.2 | 0.00 | 0.00 | 0.00 | 43 | 1016.6 |
| 20260905215244 | 81 | 260 | 11.3 | 17.4 | 0.00 | 0.00 | 0.00 | 42 | 1016.7 |
| 20260905214747 | 81 | 234 | 11.3 | 17.4 | 0.00 | 0.00 | 0.00 | 43 | 1016.8 |
| 20260905214250 | 79 | 242 | 9.6 | 18.2 | 0.00 | 0.00 | 0.00 | 44 | 1016.8 |
| 20260905213753 | 78 | 240 | 6.1 | 18.2 | 0.00 | 0.00 | 0.00 | 45 | 1016.9 |
| 20260905213256 | 79 | 247 | 10.4 | 20.0 | 0.00 | 0.00 | 0.00 | 45 | 1017.1 |
| 20260905213205 | 80 | 262 | 13.0 | 20.9 | 0.00 | 0.00 | 0.00 | 42 | 1017.2 |
| 20260905212759 | 80 | 262 | 13.0 | 20.9 | 0.00 | 0.00 | 0.00 | 42 | 1017.2 |
| 20260905212305 | 81 | 233 | 10.4 | 20.9 | 0.00 | 0.00 | 0.00 | 42 | 1017.1 |
| 20260905211805 | 81 | 249 | 6.1 | 18.2 | 0.00 | 0.00 | 0.00 | 43 | 1017.1 |
| 20260905211308 | 82 | 236 | 11.3 | 20.0 | 0.00 | 0.00 | 0.00 | 42 | 1017.3 |
| 20260905210812 | 82 | 247 | 13.0 | 20.0 | 0.00 | 0.00 | 0.00 | 41 | 1017.3 |
| 20260905210314 | 81 | 267 | 12.2 | 19.1 | 0.00 | 0.00 | 0.00 | 41 | 1016.4 |
| 20260905205817 | 81 | 275 | 8.7 | 15.6 | 0.00 | 0.00 | 0.00 | 42 | 1016.4 |
| 20260905205320 | 81 | 265 | 8.7 | 18.2 | 0.00 | 0.00 | 0.00 | 43 | 1016.5 |
| 20260905204823 | 80 | 248 | 8.7 | 20.9 | 0.00 | 0.00 | 0.00 | 43 | 1016.5 |
| 20260905204326 | 79 | 248 | 9.6 | 20.9 | 0.00 | 0.00 | 0.00 | 44 | 1016.7 |
| 20260905203829 | 79 | 270 | 8.7 | 19.1 | 0.00 | 0.00 | 0.00 | 44 | 1016.8 |
| 20260905202835 | 80 | 266 | 11.3 | 22.6 | 0.00 | 0.00 | 0.00 | 43 | 1016.8 |
| 20260905202338 | 80 | 278 | 14.8 | 22.6 | 0.00 | 0.00 | 0.00 | 40 | 1016.8 |
| 20260905201841 | 80 | 234 | 6.1 | 17.4 | 0.00 | 0.00 | 0.00 | 42 | 1016.6 |
| 20260905200847 | 79 | 268 | 11.3 | 17.4 | 0.00 | 0.00 | 0.00 | 42 | 1016.8 |
| 20260905200350 | 79 | 271 | 9.6 | 17.4 | 0.00 | 0.00 | 0.00 | 43 | 1016.8 |
| 20260905195854 | 79 | 280 | 9.6 | 17.4 | 0.00 | 0.00 | 0.00 | 42 | 1016.7 |
| 20260905194859 | 79 | 268 | 10.4 | 19.1 | 0.00 | 0.00 | 0.00 | 40 | 1016.9 |
| 20260905194402 | 79 | 271 | 11.3 | 18.2 | 0.00 | 0.00 | 0.00 | 39 | 1017.0 |
| 20260905193905 | 80 | 277 | 9.6 | 19.1 | 0.00 | 0.00 | 0.00 | 37 | 1017.0 |
| 20260905193408 | 80 | 210 | 13.0 | 19.1 | 0.00 | 0.00 | 0.00 | 36 | 1017.2 |
| 20260905192911 | 80 | 275 | 13.0 | 19.1 | 0.00 | 0.00 | 0.00 | 35 | 1017.4 |
| 20260905191917 | 80 | 217 | 9.6 | 17.4 | 0.00 | 0.00 | 0.00 | 34 | 1017.4 |
| 20260905191421 | 80 | 265 | 10.4 | 16.5 | 0.00 | 0.00 | 0.00 | 36 | 1017.5 |
| 20260905190923 | 80 | 240 | 7.8 | 19.1 | 0.00 | 0.00 | 0.00 | 36 | 1017.6 |
| 20260905190426 | 80 | 235 | 12.2 | 19.1 | 0.00 | 0.00 | 0.00 | 36 | 1017.4 |
| 20260905185432 | 79 | 227 | 10.4 | 19.1 | 0.00 | 0.00 | 0.00 | 37 | 1017.5 |
| 20260905183941 | 79 | 276 | 11.3 | 18.2 | 0.00 | 0.00 | 0.00 | 37 | 1017.5 |
| 20260905183444 | 79 | 269 | 12.2 | 18.2 | 0.00 | 0.00 | 0.00 | 35 | 1017.6 |
| 20260905182947 | 79 | 258 | 11.3 | 18.2 | 0.00 | 0.00 | 0.00 | 36 | 1017.5 |
| 20260905182450 | 79 | 265 | 9.6 | 19.1 | 0.00 | 0.00 | 0.00 | 34 | 1017.5 |
| 20260905181953 | 78 | 206 | 5.2 | 19.1 | 0.00 | 0.00 | 0.00 | 35 | 1017.7 |
| 20260905181456 | 79 | 253 | 9.6 | 15.6 | 0.00 | 0.00 | 0.00 | 32 | 1017.6 |
| 20260905180959 | 78 | 247 | 7.8 | 20.0 | 0.00 | 0.00 | 0.00 | 34 | 1017.8 |
| 20260905180502 | 78 | 272 | 11.3 | 20.0 | 0.00 | 0.00 | 0.00 | 34 | 1017.7 |
| 20260905175011 | 77 | 264 | 12.2 | 20.9 | 0.00 | 0.00 | 0.00 | 38 | 1017.5 |
| 20260905174017 | 76 | 271 | 10.4 | 20.0 | 0.00 | 0.00 | 0.00 | 38 | 1017.4 |
| 20260905173520 | 76 | 271 | 10.4 | 20.0 | 0.00 | 0.00 | 0.00 | 42 | 1017.5 |
| 20260905172526 | 77 | 277 | 8.7 | 20.9 | 0.00 | 0.00 | 0.00 | 42 | 1017.4 |
| 20260905172029 | 77 | 238 | 7.8 | 19.1 | 0.00 | 0.00 | 0.00 | 41 | 1017.5 |
| 20260905171035 | 76 | 243 | 7.8 | 20.9 | 0.00 | 0.00 | 0.00 | 39 | 1017.5 |
| 20260905170041 | 76 | 276 | 11.3 | 18.2 | 0.00 | 0.00 | 0.00 | 35 | 1016.4 |
| 20260905165047 | 75 | 259 | 8.7 | 14.8 | 0.00 | 0.00 | 0.00 | 34 | 1016.7 |
| 20260905164053 | 75 | 270 | 11.3 | 16.5 | 0.00 | 0.00 | 0.00 | 32 | 1016.6 |
| 20260905163556 | 73 | 278 | 10.4 | 15.6 | 0.00 | 0.00 | 0.00 | 31 | 1016.6 |
| 20260905163059 | 75 | 271 | 8.7 | 18.2 | 0.00 | 0.00 | 0.00 | 28 | 1016.6 |
| 20260905161112 | 75 | 221 | 7.8 | 14.8 | 0.00 | 0.00 | 0.00 | 24 | 1016.7 |
| 20260905160614 | 75 | 279 | 6.1 | 13.9 | 0.00 | 0.00 | 0.00 | 22 | 1016.7 |
| 20260905160117 | 75 | 270 | 5.2 | 15.6 | 0.00 | 0.00 | 0.00 | 22 | 1016.8 |
| 20260905154626 | 74 | 213 | 7.8 | 13.9 | 0.00 | 0.00 | 0.00 | 20 | 1016.8 |
| 20260905154129 | 73 | 216 | 9.6 | 13.0 | 0.00 | 0.00 | 0.00 | 20 | 1016.7 |
| 20260905153135 | 72 | 226 | 6.1 | 14.8 | 0.00 | 0.00 | 0.00 | 20 | 1016.7 |
| 20260905152141 | 71 | 210 | 8.7 | 14.8 | 0.00 | 0.00 | 0.00 | 20 | 1016.6 |
| 20260905151644 | 71 | 220 | 7.8 | 14.8 | 0.00 | 0.00 | 0.00 | 20 | 1016.5 |
| 20260905151147 | 70 | 211 | 7.8 | 14.8 | 0.00 | 0.00 | 0.00 | 19 | 1016.5 |
| 20260905150153 | 70 | 201 | 5.2 | 11.3 | 0.00 | 0.00 | 0.00 | 18 | 1016.3 |
| 20260905145656 | 69 | 245 | 0.9 | 11.3 | 0.00 | 0.00 | 0.00 | 19 | 1016.2 |
| 20260905144702 | 69 | 218 | 4.3 | 8.7 | 0.00 | 0.00 | 0.00 | 18 | 1016.2 |
| 20260905143752 | 68 | 195 | 5.2 | 13.0 | 0.00 | 0.00 | 0.00 | 19 | 1016.1 |
| 20260905143708 | 68 | 195 | 5.2 | 13.0 | 0.00 | 0.00 | 0.00 | 19 | 1016.1 |
| 20260905142217 | 67 | 197 | 3.5 | 13.9 | 0.00 | 0.00 | 0.00 | 20 | 1016.0 |
| 20260905141223 | 66 | 318 | 2.6 | 8.7 | 0.00 | 0.00 | 0.00 | 22 | 1015.8 |
| 20260905140229 | 65 | 223 | 3.5 | 10.4 | 0.00 | 0.00 | 0.00 | 23 | 1015.8 |
| 20260905134738 | 64 | 267 | 3.5 | 8.7 | 0.00 | 0.00 | 0.00 | 24 | 1015.4 |
| 20260905134241 | 64 | 277 | 2.6 | 7.8 | 0.00 | 0.00 | 0.00 | 25 | 1015.4 |
| 20260905133744 | 64 | 218 | 2.6 | 10.4 | 0.00 | 0.00 | 0.00 | 25 | 1015.4 |
| 20260905133247 | 64 | 273 | 3.5 | 10.4 | 0.00 | 0.00 | 0.00 | 26 | 1015.1 |
| 20260905132750 | 64 | 252 | 3.5 | 9.6 | 0.00 | 0.00 | 0.00 | 26 | 1015.2 |
| 20260905132253 | 64 | 259 | 5.2 | 9.6 | 0.00 | 0.00 | 0.00 | 26 | 1015.2 |
| 20260905131756 | 64 | 271 | 3.5 | 8.7 | 0.00 | 0.00 | 0.00 | 26 | 1015.1 |
| 20260905131259 | 63 | 264 | 4.3 | 8.7 | 0.00 | 0.00 | 0.00 | 26 | 1015.0 |
| 20260905130802 | 63 | 262 | 3.5 | 10.4 | 0.00 | 0.00 | 0.00 | 26 | 1015.0 |
| 20260905130305 | 63 | 246 | 2.6 | 10.4 | 0.00 | 0.00 | 0.00 | 27 | 1015.0 |
| 20260905125808 | 63 | 237 | 3.5 | 8.7 | 0.00 | 0.00 | 0.00 | 27 | 1015.0 |
| 20260905125311 | 63 | 266 | 3.5 | 9.6 | 0.00 | 0.00 | 0.00 | 26 | 1014.9 |
| 20260905123323 | 63 | 235 | 4.3 | 10.4 | 0.00 | 0.00 | 0.00 | 25 | 1014.9 |
| 20260905122826 | 63 | 212 | 5.2 | 10.4 | 0.00 | 0.00 | 0.00 | 26 | 1014.8 |
| 20260905121832 | 63 | 246 | 4.3 | 9.6 | 0.00 | 0.00 | 0.00 | 25 | 1014.8 |
| 20260905121335 | 63 | 270 | 5.2 | 9.6 | 0.00 | 0.00 | 0.00 | 25 | 1014.9 |
| 20260905120838 | 63 | 270 | 5.2 | 8.7 | 0.00 | 0.00 | 0.00 | 25 | 1014.9 |
| 20260905120341 | 63 | 274 | 3.5 | 7.8 | 0.00 | 0.00 | 0.00 | 25 | 1014.9 |
| 20260905115845 | 63 | 261 | 3.5 | 12.2 | 0.00 | 0.00 | 0.00 | 1014.9 | |
| 20260905115347 | 63 | 260 | 5.2 | 12.2 | 0.00 | 0.00 | 0.00 | 24 | 1014.9 |
| 20260905113856 | 63 | 279 | 6.1 | 12.2 | 0.00 | 0.00 | 0.00 | 24 | 1014.9 |
| 20260905113359 | 63 | 279 | 6.1 | 12.2 | 0.00 | 0.00 | 0.00 | 24 | 1014.8 |
| 20260905112902 | 63 | 280 | 6.1 | 8.7 | 0.00 | 0.00 | 0.00 | 23 | 1014.8 |
| 20260905112405 | 63 | 281 | 5.2 | 8.7 | 0.00 | 0.00 | 0.00 | 23 | 1014.8 |
| 20260905111411 | 63 | 262 | 2.6 | 8.7 | 0.00 | 0.00 | 0.00 | 23 | 1014.8 |
| 20260905110914 | 62 | 285 | 4.3 | 8.7 | 0.00 | 0.00 | 0.00 | 23 | 1014.9 |
| 20260905110417 | 62 | 271 | 3.5 | 8.7 | 0.00 | 0.00 | 0.00 | 23 | 1015.1 |
| 20260905105920 | 62 | 278 | 3.5 | 7.8 | 0.00 | 0.00 | 0.00 | 23 | 1015.1 |
| 20260905105423 | 62 | 267 | 3.5 | 7.8 | 0.00 | 0.00 | 0.00 | 22 | 1015.1 |
| 20260905104926 | 62 | 298 | 3.5 | 7.0 | 0.00 | 0.00 | 0.00 | 22 | 1015.1 |
| 20260905104429 | 62 | 307 | 2.6 | 4.3 | 0.00 | 0.00 | 0.00 | 22 | 1015.0 |
| 20260905103932 | 62 | 323 | 0.9 | 4.3 | 0.00 | 0.00 | 0.00 | 22 | 1015.0 |
| 20260905102939 | 62 | 263 | 1.7 | 4.3 | 0.00 | 0.00 | 0.00 | 21 | 1015.0 |
| 20260905101944 | 62 | 283 | 1.7 | 7.0 | 0.00 | 0.00 | 0.00 | 21 | 1015.0 |
| 20260905101447 | 62 | 284 | 2.6 | 7.8 | 0.00 | 0.00 | 0.00 | 21 | 1014.9 |
| 20260905100950 | 62 | 246 | 3.5 | 7.8 | 0.00 | 0.00 | 0.00 | 21 | 1015.1 |
| 20260905095957 | 62 | 322 | 1.7 | 7.0 | 0.00 | 0.00 | 0.00 | 21 | 1015.1 |
| 20260905095459 | 62 | 294 | 1.7 | 7.0 | 0.00 | 0.00 | 0.00 | 22 | 1015.1 |
| 20260905095003 | 62 | 162 | 2.6 | 6.1 | 0.00 | 0.00 | 0.00 | 22 | 1015.2 |
| 20260905093511 | 61 | 290 | 2.6 | 7.0 | 0.00 | 0.00 | 0.00 | 25 | 1015.3 |
| 20260905093014 | 61 | 260 | 1.7 | 7.0 | 0.00 | 0.00 | 0.00 | 26 | 1015.3 |
| 20260905092517 | 61 | 276 | 2.6 | 6.1 | 0.00 | 0.00 | 0.00 | 27 | 1015.3 |
| 20260905091523 | 61 | 282 | 0.9 | 5.2 | 0.00 | 0.00 | 0.00 | 32 | 1015.2 |
| 20260905091026 | 61 | 284 | 1.7 | 5.2 | 0.00 | 0.00 | 0.00 | 33 | 1015.3 |
| 20260905090529 | 61 | 263 | 0.9 | 6.1 | 0.00 | 0.00 | 0.00 | 33 | 1015.3 |
| 20260905090032 | 61 | 261 | 2.6 | 7.8 | 0.00 | 0.00 | 0.00 | 34 | 1015.3 |
| 20260905085038 | 60 | 279 | 3.5 | 7.0 | 0.00 | 0.00 | 0.00 | 36 | 1015.3 |
| 20260905084541 | 60 | 290 | 4.3 | 7.0 | 0.00 | 0.00 | 0.00 | 37 | 1015.4 |
| 20260905084044 | 60 | 295 | 4.3 | 6.1 | 0.00 | 0.00 | 0.00 | 39 | 1015.3 |
| 20260905082553 | 61 | 288 | 5.2 | 9.6 | 0.00 | 0.00 | 0.00 | 40 | 1015.5 |
| 20260905081102 | 61 | 300 | 5.2 | 9.6 | 0.00 | 0.00 | 0.00 | 41 | 1015.5 |
| 20260905080605 | 61 | 288 | 6.1 | 11.3 | 0.00 | 0.00 | 0.00 | 41 | 1015.6 |
| 20260905075114 | 61 | 289 | 4.3 | 12.2 | 0.00 | 0.00 | 0.00 | 41 | 1015.5 |
| 20260905074617 | 61 | 290 | 7.0 | 13.9 | 0.00 | 0.00 | 0.00 | 41 | 1015.6 |
| 20260905074120 | 61 | 283 | 7.0 | 14.8 | 0.00 | 0.00 | 0.00 | 41 | 1015.5 |
| 20260905073623 | 61 | 283 | 7.8 | 14.8 | 0.00 | 0.00 | 0.00 | 41 | 1015.5 |
| 20260905073126 | 61 | 289 | 6.1 | 13.9 | 0.00 | 0.00 | 0.00 | 42 | 1015.5 |
| 20260905072629 | 61 | 286 | 7.0 | 13.9 | 0.00 | 0.00 | 0.00 | 42 | 1015.4 |
| 20260905072213 | 62 | 283 | 8.7 | 14.8 | 0.00 | 0.00 | 0.00 | 42 | 1015.5 |
| 20260905072132 | 62 | 283 | 8.7 | 14.8 | 0.00 | 0.00 | 0.00 | 42 | 1015.5 |
| 20260905071138 | 62 | 283 | 9.6 | 16.5 | 0.00 | 0.00 | 0.00 | 42 | 1015.4 |
| 20260905070641 | 62 | 284 | 9.6 | 16.5 | 0.00 | 0.00 | 0.00 | 43 | 1015.3 |
| 20260905065151 | 62 | 284 | 11.3 | 18.2 | 0.00 | 0.00 | 0.00 | 42 | 1015.1 |
| 20260905064156 | 62 | 286 | 10.4 | 14.8 | 0.00 | 0.00 | 0.00 | 43 | 1015.1 |
| 20260905063659 | 62 | 285 | 9.6 | 15.6 | 0.00 | 0.00 | 0.00 | 43 | 1015.1 |
| 20260905063202 | 62 | 282 | 9.6 | 15.6 | 0.00 | 0.00 | 0.00 | 43 | 1015.0 |
| 20260905061711 | 62 | 278 | 8.7 | 14.8 | 0.00 | 0.00 | 0.00 | 45 | 1015.1 |
| 20260905060718 | 62 | 281 | 8.7 | 12.2 | 0.00 | 0.00 | 0.00 | 47 | 1015.0 |
| 20260905060220 | 62 | 281 | 8.7 | 12.2 | 0.00 | 0.00 | 0.00 | 47 | 1015.1 |
| 20260905055723 | 62 | 279 | 7.8 | 12.2 | 0.00 | 0.00 | 0.00 | 48 | 1015.1 |
| 20260905055226 | 62 | 281 | 8.7 | 12.2 | 0.00 | 0.00 | 0.00 | 48 | 1015.1 |
| 20260905054730 | 62 | 278 | 7.8 | 11.3 | 0.00 | 0.00 | 0.00 | 49 | 1015.1 |
| 20260905054232 | 62 | 280 | 7.8 | 12.2 | 0.00 | 0.00 | 0.00 | 50 | 1015.1 |
| 20260905052741 | 61 | 285 | 7.8 | 11.3 | 0.00 | 0.00 | 0.00 | 52 | 1015.1 |
| 20260905052244 | 61 | 283 | 7.8 | 9.6 | 0.00 | 0.00 | 0.00 | 53 | 1015.2 |
| 20260905051747 | 61 | 285 | 6.1 | 10.4 | 0.00 | 0.00 | 0.00 | 54 | 1015.2 |
| 20260905051250 | 61 | 282 | 7.0 | 10.4 | 0.00 | 0.00 | 0.00 | 54 | 1015.2 |
| 20260905050753 | 61 | 283 | 7.0 | 10.4 | 0.00 | 0.00 | 0.00 | 54 | 1015.0 |
| 20260905050256 | 61 | 282 | 7.0 | 11.3 | 0.00 | 0.00 | 0.00 | 55 | 1015.0 |
| 20260905045759 | 61 | 283 | 7.0 | 11.3 | 0.00 | 0.00 | 0.00 | 55 | 1015.0 |
| 20260905045305 | 61 | 278 | 7.0 | 11.3 | 0.00 | 0.00 | 0.00 | 55 | 1014.9 |
| 20260905044805 | 61 | 280 | 7.8 | 11.3 | 0.00 | 0.00 | 0.00 | 56 | 1015.0 |
| 20260905044308 | 61 | 287 | 7.8 | 11.3 | 0.00 | 0.00 | 0.00 | 56 | 1014.8 |
| 20260905043811 | 61 | 282 | 7.8 | 11.3 | 0.00 | 0.00 | 0.00 | 58 | 1014.7 |
| 20260905043314 | 61 | 285 | 7.0 | 10.4 | 0.00 | 0.00 | 0.00 | 59 | 1014.7 |
| 20260905042818 | 61 | 285 | 7.0 | 10.4 | 0.00 | 0.00 | 0.00 | 61 | 1014.7 |
| 20260905042320 | 60 | 294 | 7.0 | 10.4 | 0.00 | 0.00 | 0.00 | 63 | 1014.6 |
| 20260905041823 | 60 | 281 | 6.1 | 9.6 | 0.00 | 0.00 | 0.00 | 63 | 1014.7 |
| 20260905041326 | 60 | 284 | 5.2 | 9.6 | 0.00 | 0.00 | 0.00 | 62 | 1014.7 |
| 20260905040333 | 61 | 285 | 7.0 | 11.3 | 0.00 | 0.00 | 0.00 | 62 | 1014.6 |
| 20260905035836 | 61 | 288 | 7.8 | 11.3 | 0.00 | 0.00 | 0.00 | 61 | 1014.5 |
| 20260905035339 | 61 | 283 | 7.0 | 10.4 | 0.00 | 0.00 | 0.00 | 60 | 1014.4 |
| 20260905034344 | 61 | 272 | 6.1 | 10.4 | 0.00 | 0.00 | 0.00 | 57 | 1014.4 |
| 20260905033847 | 61 | 268 | 7.0 | 11.3 | 0.00 | 0.00 | 0.00 | 56 | 1014.5 |
| 20260905032854 | 61 | 270 | 7.8 | 12.2 | 0.00 | 0.00 | 0.00 | 55 | 1014.3 |
| 20260905032356 | 61 | 273 | 7.0 | 12.2 | 0.00 | 0.00 | 0.00 | 55 | 1014.2 |
| 20260905031859 | 62 | 272 | 7.8 | 12.2 | 0.00 | 0.00 | 0.00 | 55 | 1014.2 |
| 20260905031403 | 62 | 278 | 8.7 | 13.0 | 0.00 | 0.00 | 0.00 | 55 | 1014.2 |
| 20260905030409 | 62 | 276 | 8.7 | 12.2 | 0.00 | 0.00 | 0.00 | 54 | 1014.1 |
| 20260905025415 | 62 | 272 | 8.7 | 12.2 | 0.00 | 0.00 | 0.00 | 52 | 1014.0 |
| 20260905024421 | 62 | 269 | 7.0 | 11.3 | 0.00 | 0.00 | 0.00 | 50 | 1014.0 |
| 20260905023924 | 63 | 269 | 8.7 | 12.2 | 0.00 | 0.00 | 0.00 | 50 | 1014.1 |
| 20260905023427 | 63 | 266 | 6.1 | 12.2 | 0.00 | 0.00 | 0.00 | 51 | 1014.1 |
| 20260905022930 | 63 | 271 | 7.0 | 11.3 | 0.00 | 0.00 | 0.00 | 52 | 1014.1 |
| 20260905022433 | 63 | 268 | 6.1 | 13.0 | 0.00 | 0.00 | 0.00 | 51 | 1014.0 |
| 20260905021936 | 64 | 274 | 6.1 | 13.0 | 0.00 | 0.00 | 0.00 | 51 | 1014.0 |
| 20260905021440 | 64 | 270 | 7.0 | 12.2 | 0.00 | 0.00 | 0.00 | 51 | 1014.0 |
| 20260905020941 | 65 | 279 | 7.8 | 12.2 | 0.00 | 0.00 | 0.00 | 51 | 1013.9 |
| 20260905015450 | 66 | 288 | 10.4 | 13.9 | 0.00 | 0.00 | 0.00 | 48 | 1013.8 |
| 20260905014457 | 68 | 277 | 6.1 | 12.2 | 0.00 | 0.00 | 0.00 | 47 | 1014.0 |
| 20260905013959 | 68 | 277 | 8.7 | 12.2 | 0.00 | 0.00 | 0.00 | 47 | 1013.9 |
| 20260905012509 | 69 | 281 | 7.8 | 13.9 | 0.00 | 0.00 | 0.00 | 46 | 1013.9 |
| 20260905012011 | 70 | 255 | 7.8 | 15.6 | 0.00 | 0.00 | 0.00 | 46 | 1013.9 |
| 20260905011017 | 70 | 278 | 7.0 | 16.5 | 0.00 | 0.00 | 0.00 | 46 | 1013.9 |
| 20260905010521 | 70 | 264 | 9.6 | 16.5 | 0.00 | 0.00 | 0.00 | 45 | 1013.8 |
| 20260905010023 | 70 | 270 | 7.8 | 16.5 | 0.00 | 0.00 | 0.00 | 45 | 1013.7 |
| 20260905005030 | 71 | 251 | 13.0 | 20.0 | 0.00 | 0.00 | 0.00 | 44 | 1013.9 |
| 20260905004533 | 71 | 255 | 10.4 | 20.0 | 0.00 | 0.00 | 0.00 | 45 | 1013.9 |
| 20260905002545 | 72 | 263 | 10.4 | 20.9 | 0.00 | 0.00 | 0.00 | 43 | 1013.6 |
| 20260905001054 | 72 | 258 | 12.2 | 20.9 | 0.00 | 0.00 | 0.00 | 44 | 1013.8 |
| 20260905000557 | 72 | 269 | 9.6 | 21.7 | 0.00 | 0.00 | 0.00 | 44 | 1013.8 |
| 20260904235603 | 73 | 249 | 14.8 | 20.0 | 0.00 | 0.00 | 0.00 | 43 | 1013.9 |
| 20260904231627 | 73 | 259 | 9.6 | 20.9 | 0.00 | 0.00 | 0.00 | 43 | 1014.0 |